Location: *
(48.8489°N, 2.3218°E)
Time: 04:30:57
(UTC+00:00)

CZ-2C R/B - Pass Details

Date: 23 August 2019
Orbit: 705 x 907 km, 98.1° (Epoch: 14 October)

Event Time Altitude Azimuth Distance (km) Brightness Sun altitude
Exits shadow 20:40:27 12° 184° (S) 2,043 4.9 -16.4°
Maximum altitude 20:44:45 54° 260° (W) 870 3.5 -16.9°
Drops below altitude 10° 20:49:31 10° 338° (NNW) 2,230 6.4 -17.5°
Sets 20:51:53 0° 343° (NNW) 3,179 7.3 -17.8°
